Location: Chavanat
(45.9534°N, 1.9661°E)
Time: 06:20:14
(UTC+00:00)

Daily predictions for brighter satellites

Satellite Brightness Start Highest point End
(mag) Time Altitude Azimuth Time Altitude Azimuth Time Altitude Azimuth
Cosmos 1452 Rocket 3.5 20:13:27 10° SSW 20:18:43 80° ESE 20:24:02 10° NNE
Resurs 1-3 4.1 20:14:56 10° S 20:19:16 64° W 20:23:39 10° NNW
Cosmos 2219 Rocket 3.4 20:18:05 10° SSE 20:22:21 22° E 20:26:38 10° NE
Cosmos 2333 Rocket 3.2 20:18:52 10° SSE 20:23:35 27° ESE 20:28:18 10° NE
FALCON 9 DEB 3.9 20:22:22 10° SSW 20:25:01 25° SE 20:27:40 10° E
Cosmos 1850 Rocket 4.1 20:22:08 10° NNW 20:27:29 87° ENE 20:32:43 10° SSE
Cosmos 1758 3.5 20:23:32 10° NNW 20:27:30 74° W 20:31:27 10° S
Lacrosse 5 rocket 1.0 20:25:02 10° SW 20:28:42 59° SE 20:32:15 10° ENE
Cosmos 1025 Rocket 4.0 20:24:56 10° SSE 20:28:46 30° E 20:32:36 10° NNE
ERS-1 Rocket 4.2 20:24:53 10° ESE 20:29:06 28° ENE 20:33:19 10° N
Cosmos 1844 4.0 20:24:46 10° NNW 20:30:16 58° ENE 20:35:48 10° SE
Spot 2 Rocket 4.1 20:29:01 10° SE 20:33:45 42° ENE 20:38:33 10° N
Cosmos 1727 Rocket 4.1 20:28:12 10° S 20:34:30 84° E 20:40:48 10° N
Cosmos 1331 Rocket 4.2 20:30:48 10° S 20:35:52 52° ESE 20:41:00 10° NNE
DNEPR-1 R/B 4.3 20:35:16 10° NNW 20:39:18 41° NE 20:43:28 10° ESE
FALCON 9 DEB 3.0 20:37:33 10° SW 20:40:33 48° SE 20:43:32 10° ENE
CENTAUR R/B 4.1 20:36:25 10° WSW 20:42:14 43° NW 20:49:10 10° NNE
Cosmos 1726 4.0 20:39:29 10° NNW 20:42:39 28° W 20:45:48 10° SSW
KORONAS-FOTON 3.7 20:39:07 10° S 20:42:53 72° E 20:46:40 10° NNE
CARTOSAT-1 4.1 20:40:18 10° SE 20:44:23 44° ENE 20:48:30 10° N
SL-14 R/B 4.4 20:41:34 10° SSE 20:45:00 28° E 20:48:26 10° NNE
Terra 3.2 20:41:32 10° ESE 20:45:26 26° ENE 20:49:21 10° N
Cosmos 2360 Rocket 2.2 20:40:39 10° SSW 20:46:18 84° ESE 20:51:59 10° NNE
SPOT 1/Viking Rocket 3.6 20:41:13 10° SSE 20:46:20 77° ENE 20:51:30 10° N
Cosmos 1674 2.5 20:43:13 10° S 20:46:56 81° E 20:50:38 10° N
OBJECT-B 3.9 20:46:07 10° WSW 20:46:56 11° W 20:47:46 10° WNW
FALCON 9 DEB 3.1 20:45:32 10° SW 20:48:30 43° SE 20:51:30 10° ENE
CZ-2C R/B 3.8 20:43:55 10° NNE 20:48:42 70° ESE 20:53:26 10° S
Cosmos 2322 Rocket 3.0 20:44:54 10° SW 20:50:30 57° WNW 20:56:09 10° NNE
SL-16 R/B 3.5 20:45:13 10° SW 20:50:38 45° WNW 20:56:06 10° NNE
FALCON 9 DEB 2.9 20:48:02 10° SW 20:51:05 56° SE 20:54:08 10° ENE
Cosmos 1953 2.3 20:47:42 10° N 20:51:48 88° E 20:55:51 10° S
SPOT 5 3.6 20:48:16 11° SE 20:52:47 42° ENE 20:57:20 10° N
USA 245 4.2 20:48:28 10° SSE 20:53:30 80° ENE 20:59:29 10° N
Cosmos 1975 Rocket 3.2 20:49:46 10° SSW 20:54:08 78° W 20:58:34 10° N
Cosmos 1802 Rocket 4.1 20:49:32 10° N 20:55:48 65° E 21:01:57 11° SSE
Cosmos 1302 Rocket 4.5 20:52:22 10° S 20:57:15 41° ESE 21:02:09 10° NE
Cosmos 1459 Rocket 3.9 20:51:10 10° N 20:57:16 80° E 21:03:20 10° S
Cosmos 1300 3.6 21:00:15 10° N 21:03:47 34° ENE 21:06:19 16° SE
Lacrosse 5 4.1 21:02:04 10° W 21:04:59 15° WSW 21:07:52 10° SSW
Resurs 01 Rocket 2.9 21:01:23 10° SSW 21:05:28 37° W 21:09:34 10° NNW
Meteor 1-16 Rocket 4.4 21:01:32 10° NNW 21:06:56 68° W 21:12:13 10° S
Cosmos 1000 Rocket 4.5 21:03:48 10° S 21:09:56 88° W 21:16:07 10° N
Cosmos 1340 2.8 21:07:27 12° S 21:10:48 55° E 21:14:30 10° NNE
Cosmos 2322 3.7 21:08:24 10° SSW 21:13:58 66° ESE 21:19:36 10° NNE
COSMOS 2428 3.0 21:10:16 10° S 21:15:43 48° ESE 21:21:14 10° NE
Cosmos 2278 Rocket 3.4 21:11:13 10° N 21:16:17 32° NE 21:20:55 12° ESE
Cosmos 1844 Rocket 3.2 21:11:56 10° NW 21:17:28 54° WSW 21:22:30 12° S
Cosmos 389 Rocket 4.1 21:20:04 10° NNE 21:22:43 21° ENE 21:24:17 16° ESE
Cosmos 1867 4.1 21:19:16 10° NNW 21:24:40 54° NE 21:28:54 16° ESE
ATLAS 2A CENTAUR R/B 4.4 21:20:08 10° SW 21:25:10 13° SSW 21:27:25 12° S
Cosmos 1864 Rocket 4.5 21:20:03 10° N 21:26:16 81° E 21:31:18 16° SSE
Cosmos 968 Rocket 3.6 21:24:56 10° NNW 21:30:01 62° ENE 21:33:29 20° SE
Cosmos 1626 3.0 21:30:13 10° SSW 21:33:47 47° WNW 21:37:23 10° N
Cosmos 1486 Rocket 4.4 21:30:22 10° NNW 21:35:29 53° ENE 21:38:52 20° SE
Cosmos 1544 Rocket 4.3 21:31:16 10° NNW 21:35:37 51° W 21:39:23 13° SSW
Cosmos 2123 Rocket 4.0 21:30:08 10° S 21:36:26 89° W 21:42:49 10° N
Cosmos 2061 Rocket 4.1 21:31:03 10° N 21:37:30 81° W 21:42:50 15° S
Meteor 2-10 Rocket 3.8 21:34:42 10° N 21:39:38 50° ENE 21:42:36 22° SE
Uosat 12 SS-18 rocket 4.1 21:35:59 10° SSW 21:40:16 66° ESE 21:45:13 10° NE
Cosmos 1992 Rocket 4.5 21:37:58 20° SSE 21:41:06 41° ESE 21:46:01 10° NE
Cosmos 2233 Rocket 4.0 21:35:09 10° N 21:41:18 68° E 21:45:35 21° SSE
ARIANE 5 R/B 3.3 21:38:34 15° S 21:42:05 50° W 21:46:29 10° NNW
Cosmos 1346 Rocket 3.2 21:47:04 27° SSE 21:48:49 46° E 21:52:41 10° NNE
Cosmos 405 3.8 21:48:19 10° NNW 21:51:37 43° W 21:53:33 21° SSW
ATLAS CENTAUR R/B 2.4 21:47:55 10° NW 21:52:02 40° WSW 21:54:30 22° S
Cosmos 1980 4.3 21:51:14 23° SSE 21:54:06 38° ESE 21:59:21 10° NE
BREEZE-M DEB (TANK) 3.9 21:41:52 10° SW 21:55:01 47° SSE 21:58:54 10° E
ATLAS 3B R/B 2.9 21:49:36 10° SW 21:56:09 71° NW 22:02:56 10° NE
SL-4 R/B 2.1 21:54:29 10° SW 21:58:32 49° SE 22:02:17 10° ENE
FALCON 9 DEB 3.9 21:57:31 10° WSW 22:00:34 48° NNW 22:03:37 10° NE
Cosmos 2219 Rocket 2.7 22:00:13 10° SW 22:05:49 61° WNW 22:11:28 10° NNE
Meteor 2-5 Rocket 4.0 22:01:11 12° SSW 22:06:17 67° WNW 22:11:54 10° N
Cosmos 2333 Rocket 3.0 22:01:56 10° SW 22:07:32 52° WNW 22:13:08 10° NNE
ERS-1 Rocket 3.9 22:04:07 17° SSW 22:07:42 42° W 22:12:29 10° NNW
Lacrosse 5 rocket 3.4 22:04:52 10° W 22:07:59 26° NNW 22:11:05 10° NE
Cosmos 1607 4.2 22:02:15 10° NNW 22:08:40 65° NE 22:12:53 22° SE
Cosmos 2228 3.0 22:07:41 10° N 22:12:07 90° ENE 22:14:06 32° S
Iridium 2 4.1 22:12:19 37° SE 22:13:17 47° E 22:16:54 10° NNE
USA 215 3.5 22:14:36 10° ENE 22:20:49 45° SE 22:25:28 18° SSW
Terra 2.8 22:20:12 21° SSW 22:22:59 40° W 22:27:29 10° NNW
SL-16 R/B 3.5 22:23:55 21° ESE 22:25:06 23° ESE 22:29:26 10° NE
Cosmos 2237 Rocket 2.2 22:23:45 26° S 22:26:53 65° ESE 22:32:28 10° NNE
Cosmos 1455 2.2 22:25:12 10° N 22:29:01 68° E 22:29:59 46° SE
Cosmos 1184 Rocket 3.1 22:29:49 47° ESE 22:29:55 47° E 22:33:04 10° NNE
Cosmos 1464 Rocket 4.2 22:24:47 10° N 22:31:06 61° ENE 22:34:26 29° SSE
H-2A R/B 4.4 22:29:39 10° N 22:33:32 43° WNW 22:36:19 17° SW
Cosmos 1503 Rocket 4.0 22:30:10 10° NNW 22:35:35 84° WSW 22:37:58 34° SSE
Cosmos 2369 Rocket 4.5 22:31:46 10° N 22:35:35 18° NE 22:39:24 10° E
Cosmos 192 4.4 22:33:47 35° S 22:35:40 60° ESE 22:40:31 10° NNE
GEOS 3 Rocket 4.0 22:38:08 24° ESE 22:41:25 65° NE 22:46:43 10° NNW
ATLAS CENTAUR R/B 3.3 22:40:44 32° S 22:42:57 52° ESE 22:53:46 10° NE
USA 267 3.8 22:48:26 10° ESE 22:54:47 57° NNE 23:01:10 10° NW
Okean 1-7 Rocket 3.6 22:54:15 45° SSE 22:55:30 71° E 22:59:56 10° NNE
Cosmos 389 Rocket 4.1 22:54:31 10° NW 22:57:19 23° W 22:58:04 22° WSW
BREEZE-M DEB (TANK) 3.2 22:55:50 10° W 22:59:00 60° N 23:07:34 10° ENE
COSMOS 2428 4.4 22:55:06 10° WSW 23:00:12 32° NW 23:05:20 10° NNE
Cosmos 2278 Rocket 2.7 22:55:08 10° NW 23:00:32 47° WSW 23:02:45 31° SSW
Cosmos 1726 Rocket 4.4 22:58:14 10° NNW 23:02:26 42° W 23:03:59 30° SW
Cosmos 2297 4.3 22:57:36 10° NNW 23:03:07 51° ENE 23:06:10 25° ESE
Cosmos 2058 Rocket 3.2 22:58:44 10° NNW 23:03:09 68° W 23:04:24 44° SSW
Cosmos 2034 Rocket 3.9 23:01:03 10° N 23:07:16 80° E 23:10:01 35° SSE
Centaur D AC-29 4.5 23:05:26 10° WSW 23:07:38 11° SW 23:09:10 10° SW
SJ 16-02 2.0 23:11:47 10° N 23:16:02 46° ENE 23:17:28 33° ESE
Meteor 1-21 Rocket 4.3 23:14:30 32° SSW 23:17:11 73° WNW 23:22:57 10° N
Cosmos 1777 Rocket 4.0 23:15:49 10° NNW 23:21:07 81° WSW 23:22:57 42° S
Spot 4 4.3 23:20:17 37° SSW 23:21:44 51° W 23:26:24 10° NNW
GP-B 3.7 23:20:44 10° NNE 23:25:01 44° E 23:26:01 38° ESE
Cosmos 1943 Rocket 2.5 23:20:43 10° NNW 23:26:11 60° ENE 23:28:53 29° SE
Meteor 1-4 Rocket 2.2 23:23:03 10° NNW 23:26:32 83° W 23:26:36 82° SW
Cosmos 1892 4.3 23:30:16 23° E 23:30:38 24° E 23:33:46 10° NE
Cosmos 1441 Rocket 4.0 23:29:44 36° WSW 23:30:40 44° WNW 23:34:21 10° N
MTI 4.0 23:29:50 10° NNE 23:32:27 57° NE 23:32:27 57° NE
ALOS 2 2.8 23:35:17 48° SSW 23:36:13 60° W 23:40:34 10° NNW
Tsikada Rocket 3.9 23:34:14 37° S 23:36:53 86° E 23:43:05 10° N
SL-4 R/B 2.8 23:34:17 10° W 23:38:09 47° NNW 23:41:46 10° ENE
USA 229 DEB 3.9 23:38:46 36° SSE 23:40:49 48° ESE 23:47:16 10° NE
USA 229 3.9 23:38:53 36° SSE 23:40:56 47° ESE 23:47:21 10° NE
Lacrosse 5 rocket 4.4 23:46:03 10° NW 23:48:05 14° N 23:50:07 10° NNE
NOSS 3-1 (C) 3.1 23:46:44 38° SSW 23:48:54 79° SE 23:55:09 10° NE
Cosmos 1626 Rocket 4.1 23:49:24 37° SW 23:50:42 50° WNW 23:55:03 10° N
Cosmos 724 4.5 23:46:12 10° NW 23:52:15 60° WSW 23:54:20 39° S
Cosmos 1408 3.6 23:53:09 33° E 23:53:21 33° E 23:56:42 10° NNE
Elektron 1 4.3 23:51:24 10° NW 23:53:44 50° WNW 23:53:44 50° WNW
Cosmos 1825 3.9 23:54:28 20° E 23:54:56 21° E 23:57:48 10° NE
OPS 6432 4.3 23:52:07 10° NW 23:54:58 77° WNW 23:54:58 77° WNW
